sat.trackr.live / text

‹ back to catalog

MIMAN

NORAD 52900 · 2022-065G

PAYLOAD ACTIVE UNKNOWN

§ Identity

Operator
Country
SKOR
Launch date
2022-06-21
Launch site
NSC
Launch vehicle
Mass (kg)
RCS (m²)

External: N2YO · Heavens-Above · Gunter

§ Orbital elements

Epoch: 2026-05-25T02:50:13.154784Z

Period
98.51 min
Inclination
98.2231°
Eccentricity
0.0008944
Mean motion
14.61813356 rev/d
Perigee alt
681.0 km
Apogee alt
693.6 km
Semi-major
7,065.5 km
B*
1.0258e-4
RAAN
287.7211°
Arg perigee
97.9344°
Mean anomaly
262.2872°
Rev number
20,707

§ Raw data

MIMAN1 52900U 22065G   26145.11820781  .00000465  00000+0  10258-3 0  99902 52900  98.2231 287.7211 0008944  97.9344 262.2872 14.61813356207075

JSON: /api/v1/satellites/52900 · /tle

For live sub-satellite position, see the globe view (requires WebGL).

§ Visibility from observer

Set your observer location to see the next 7 days of passes ≥ 10°. The values pass through the URL so the page stays shareable.

No JS? Fill the form by hand. The geolocation button needs JavaScript.

§ Radio — SatNOGS DB

ModeDescriptionDownlinkUplink
FSK AX.100 Mode 5 Mode U - TLM 436.500 MHz

1 transmitter · refreshed weekly from db.satnogs.org